Weather History for KFEP - January, 2013

Change the Weather History Date:

Friday, January 4, 2013

  Actual Average Record
Temperature  
Mean Temperature 22 °F -  
Max Temperature 32 °F 28 °F 50 °F (2007)
Min Temperature 11 °F 10 °F -13 °F (1979)
Degree Days  
Heating Degree Days 44    
Moisture  
Dew Point 17 °F    
Average Humidity 80    
Maximum Humidity 90    
Minimum Humidity 69    
Precipitation  
Precipitation 0.00 in - - ()
Sea Level Pressure  
Sea Level Pressure 30.19 in    
Wind  
Wind Speed 11 mph (SW)    
Max Wind Speed 17 mph    
Max Gust Speed 25 mph    
Visibility 10 miles    
Events      
Averages and records for this station are not official NWS values.
T = Trace of Precipitation, MM = Missing Value Source: NWS Daily Summary

Daily Weather History Graph

Daily Weather History Graph

Search for Another Location

Airport or City:

Trip Planner

Search our weather history database for the weather conditions in past years. The results will help you decide how hot, cold, wet, or windy it might be!

Date:

Astronomy

Jan. 04, 2013 Rise Set
Actual Time 7:27 AM CST 4:39 PM CST
Civil Twilight 6:55 AM CST 5:11 PM CST
Nautical Twilight 6:20 AM CST 5:46 PM CST
Astronomical Twilight 5:46 AM CST 6:20 PM CST
Moon No Moon Rise 11:01 AM CST (1/4)
Length of Visible Light 10h 15m
Length of Day
9h 12m
Waning Gibbous, 55% of the Moon is Illuminated
Jan 4
Waning Gibbous
Jan 4
Last Quarter
Jan 11
New
Jan 18
First Quarter
Jan 26
Full

Hourly Weather History & Observations

Time (CST) Temp. Windchill Dew Point Humidity Pressure Visibility Wind Dir Wind Speed Gust Speed Precip Events Conditions
12:15 AM 13.6 °F 4.6 °F 9.1 °F 82% 30.25 in 10.0 mi SW 5.8 mph - N/A   Clear
12:35 AM 11.7 °F 2.3 °F 7.2 °F 82% 30.24 in 10.0 mi SW 5.8 mph - N/A   Clear
12:55 AM 11.1 °F -1.6 °F 6.8 °F 83% 30.23 in 10.0 mi SW 9.2 mph - N/A   Clear
1:15 AM 11.3 °F -1.3 °F 7.0 °F 83% 30.24 in 10.0 mi SSW 9.2 mph - N/A   Clear
1:35 AM 11.1 °F -2.4 °F 7.0 °F 83% 30.24 in 10.0 mi SW 10.4 mph - N/A   Clear
1:55 AM 11.1 °F -3.2 °F 7.0 °F 83% 30.24 in 10.0 mi SSW 11.5 mph - N/A   Clear
2:35 AM 11.1 °F -2.4 °F 7.2 °F 84% 30.24 in 10.0 mi SW 10.4 mph 17.3 mph N/A   Clear
2:55 AM 11.1 °F -3.9 °F 7.2 °F 84% 30.23 in 10.0 mi SW 12.7 mph 17.3 mph N/A   Clear
3:15 AM 11.1 °F -3.9 °F 7.2 °F 84% 30.23 in 10.0 mi SW 12.7 mph - N/A   Clear
5:55 AM 14.0 °F -2.0 °F 10.4 °F 86% 30.19 in 10.0 mi SSW 16.1 mph 19.6 mph N/A   Clear
6:15 AM 13.6 °F 0.0 °F 10.0 °F 86% 30.19 in 10.0 mi SW 11.5 mph - N/A   Clear
6:35 AM 13.6 °F -1.9 °F 10.0 °F 86% 30.19 in 10.0 mi SSW 15.0 mph - N/A   Clear
6:55 AM 13.6 °F -1.9 °F 10.0 °F 86% 30.19 in 10.0 mi SSW 15.0 mph 21.9 mph N/A   Clear
7:15 AM 13.6 °F -0.7 °F 10.0 °F 86% 30.19 in 10.0 mi SW 12.7 mph 17.3 mph N/A   Clear
7:35 AM 14.0 °F -0.8 °F 10.4 °F 86% 30.18 in 10.0 mi SW 13.8 mph 18.4 mph N/A   Clear
7:55 AM 16.2 °F 1.9 °F 12.2 °F 84% 30.18 in 10.0 mi SW 13.8 mph 18.4 mph N/A   Clear
8:15 AM 16.2 °F 0.8 °F 12.2 °F 84% 30.19 in 10.0 mi SW 16.1 mph - N/A   Clear
8:35 AM 16.2 °F 2.5 °F 12.2 °F 84% 30.19 in 10.0 mi SW 12.7 mph 19.6 mph N/A   Clear
8:55 AM 17.1 °F 4.3 °F 12.9 °F 84% 30.19 in 10.0 mi SW 11.5 mph 17.3 mph N/A   Clear
9:15 AM 18.5 °F 5.5 °F 14.0 °F 83% 30.19 in 10.0 mi SW 12.7 mph 18.4 mph N/A   Clear
9:35 AM 18.5 °F 5.5 °F 14.0 °F 83% 30.19 in 10.0 mi SW 12.7 mph 18.4 mph N/A   Clear
9:55 AM 19.8 °F 5.9 °F 15.3 °F 83% 30.19 in 10.0 mi SW 15.0 mph 20.7 mph N/A   Clear
10:15 AM 21.2 °F 7.3 °F 16.5 °F 82% 30.18 in 10.0 mi SW 16.1 mph 20.7 mph N/A   Clear
10:35 AM 22.3 °F 8.2 °F 17.1 °F 80% 30.18 in 10.0 mi SW 17.3 mph - N/A   Clear
10:55 AM 23.7 °F 10.1 °F 18.5 °F 80% 30.18 in 10.0 mi SW 17.3 mph 24.2 mph N/A   Clear
11:15 AM 24.3 °F 11.2 °F 18.7 °F 79% 30.18 in 10.0 mi SW 16.1 mph 21.9 mph N/A   Clear
11:35 AM 25.3 °F 12.6 °F 19.2 °F 78% 30.17 in 10.0 mi SW 16.1 mph 24.2 mph N/A   Clear
11:55 AM 26.2 °F 13.8 °F 19.8 °F 76% 30.16 in 10.0 mi SW 16.1 mph - N/A   Clear
12:15 PM 27.3 °F 14.8 °F 20.3 °F 75% 30.15 in 10.0 mi SW 17.3 mph 23.0 mph N/A   Clear
12:35 PM 28.8 °F 17.0 °F 21.4 °F 74% 30.14 in 10.0 mi SW 16.1 mph 25.3 mph N/A   Clear
12:55 PM 28.8 °F 17.5 °F 21.6 °F 74% 30.13 in 10.0 mi SW 15.0 mph 21.9 mph N/A   Clear
1:15 PM 29.1 °F 17.5 °F 21.2 °F 72% 30.13 in 10.0 mi SW 16.1 mph 25.3 mph N/A   Clear
1:35 PM 30.2 °F 18.9 °F 22.6 °F 73% 30.13 in 10.0 mi SW 16.1 mph 23.0 mph N/A   Clear
1:55 PM 30.6 °F 20.7 °F 23.0 °F 74% 30.14 in 10.0 mi SW 12.7 mph 20.7 mph N/A   Clear
2:15 PM 31.5 °F 21.8 °F 23.5 °F 73% 30.14 in 10.0 mi SW 12.7 mph 20.7 mph N/A   Clear
2:35 PM 31.5 °F 21.4 °F 23.2 °F 71% 30.14 in 10.0 mi SW 13.8 mph 21.9 mph N/A   Clear
2:55 PM 31.5 °F 21.4 °F 23.0 °F 71% 30.15 in 10.0 mi SW 13.8 mph 18.4 mph N/A   Clear
3:15 PM 31.5 °F 22.3 °F 23.0 °F 71% 30.16 in 10.0 mi SW 11.5 mph - N/A   Clear
3:35 PM 31.5 °F 22.9 °F 23.0 °F 71% 30.16 in 10.0 mi SW 10.4 mph - N/A   Clear
3:55 PM 31.5 °F 21.8 °F 23.0 °F 71% 30.16 in 10.0 mi SW 12.7 mph - N/A   Clear
4:15 PM 31.5 °F 22.9 °F 23.4 °F 72% 30.17 in 10.0 mi SSW 10.4 mph - N/A   Clear
4:35 PM 32.0 °F 23.0 °F 23.0 °F 69% 30.17 in 10.0 mi SSW 11.5 mph - N/A   Clear
4:55 PM 31.5 °F 22.3 °F 23.4 °F 72% 30.19 in 10.0 mi SW 11.5 mph - N/A   Clear
5:15 PM 30.2 °F 20.2 °F 23.0 °F 75% 30.19 in 10.0 mi SW 12.7 mph - N/A   Clear
5:35 PM 28.8 °F 20.2 °F 21.4 °F 74% 30.19 in 10.0 mi SW 9.2 mph - N/A   Clear
5:55 PM 28.8 °F 20.2 °F 21.7 °F 75% 30.19 in 10.0 mi SW 9.2 mph - N/A   Clear
6:15 PM 28.8 °F 20.2 °F 22.1 °F 76% 30.20 in 10.0 mi SW 9.2 mph - N/A   Clear
6:35 PM 27.9 °F 19.8 °F 21.4 °F 77% 30.20 in 10.0 mi SW 8.1 mph - N/A   Clear
6:55 PM 27.0 °F 18.7 °F 21.0 °F 78% 30.21 in 10.0 mi SSW 8.1 mph - N/A   Clear
7:15 PM 27.3 °F 19.9 °F 21.6 °F 79% 30.21 in 10.0 mi SW 6.9 mph - N/A   Clear
7:35 PM 26.2 °F 18.6 °F 21.0 °F 81% 30.21 in 10.0 mi SSW 6.9 mph - N/A   Clear
7:55 PM 25.5 °F 16.9 °F 21.0 °F 83% 30.21 in 10.0 mi SSW 8.1 mph - N/A   Clear
8:15 PM 25.7 °F 18.0 °F 21.4 °F 84% 30.21 in 10.0 mi SSW 6.9 mph - N/A   Clear
8:35 PM 26.4 °F 18.0 °F 22.1 °F 84% 30.21 in 10.0 mi SW 8.1 mph - N/A   Clear
8:55 PM 26.8 °F 19.3 °F 22.1 °F 83% 30.21 in 10.0 mi SSW 6.9 mph - N/A   Clear
9:15 PM 26.2 °F 18.6 °F 21.7 °F 83% 30.21 in 10.0 mi SW 6.9 mph - N/A   Clear
9:35 PM 26.2 °F 18.6 °F 22.1 °F 84% 30.21 in 10.0 mi SSW 6.9 mph - N/A   Clear
9:55 PM 24.8 °F 16.9 °F 21.0 °F 86% 30.21 in 10.0 mi SSW 6.9 mph - N/A   Clear
10:15 PM 24.8 °F 20.5 °F 21.0 °F 86% 30.21 in 10.0 mi SW 3.5 mph - N/A   Clear
10:35 PM 23.9 °F - 20.1 °F 85% 30.21 in 10.0 mi Calm Calm - N/A   Clear
10:55 PM 23.7 °F - 20.3 °F 87% 30.21 in 7.0 mi Calm Calm - N/A   Clear
11:15 PM 21.6 °F - 18.5 °F 88% 30.20 in 7.0 mi Calm Calm - N/A   Clear
11:35 PM 18.7 °F - 16.0 °F 89% 30.19 in 7.0 mi Calm Calm - N/A   Clear
11:55 PM 19.8 °F - 17.2 °F 90% 30.18 in 7.0 mi Calm Calm - N/A   Clear